Sisseton, SD

12:53 AM CDT on October 22, 2017 (GMT -0500)
Sisseton

Weather History for K8D3 - August, 2013

Change the Weather History Date:

Monday, August 26, 2013

  Actual Average Record
Temperature  
Mean Temperature 83 °F 67 °F  
Max Temperature 93 °F 79 °F 100 °F (1976)
Min Temperature 72 °F 55 °F 41 °F (1992)
Degree Days  
Heating Degree Days 0 2  
Month to date heating degree days 23 18  
Since 1 June heating degree days 118 93  
Since 1 July heating degree days 49 31  
Cooling Degree Days 18 4  
Month to date cooling degree days 121 139  
Year to date cooling degree days 469 461  
Since 1 June cooling degree days 444 438  
Growing Degree Days 32 (Base 50)    
Moisture  
Dew Point 73 °F    
Average Humidity 76    
Maximum Humidity 100    
Minimum Humidity 52    
Precipitation  
Precipitation 0.00 in 0.08 in 2.18 in (1989)
Month to date precipitation 0.64 2.02  
Year to date precipitation 18.36 16.32  
Sea Level Pressure  
Sea Level Pressure 29.79 in    
Wind  
Wind Speed 4 mph (SSW)    
Max Wind Speed 13 mph    
Max Gust Speed 20 mph    
T = Trace of Precipitation, MM = Missing Value Source: NWS Daily Summary

Daily Weather History Graph

Daily Weather History Graph

Search for Another Location

Airport or City:

Trip Planner

Search our weather history database for the weather conditions in past years. The results will help you decide how hot, cold, wet, or windy it might be!

Date:

Astronomy

Aug. 26, 2013 Rise Set
Actual Time 6:42 AM CDT 8:16 PM CDT
Civil Twilight 6:10 AM CDT 8:47 PM CDT
Nautical Twilight 5:32 AM CDT 9:25 PM CDT
Astronomical Twilight 4:52 AM CDT 10:05 PM CDT
Moon 11:06 PM CDT (8/26) 1:05 PM CDT (8/26)
Length of Visible Light 14h 36m
Length of Day
13h 34m
Waning Gibbous, 66% of the Moon is Illuminated
Aug 26
Waning Gibbous
Aug 28
Last Quarter
Sep 5
New
Sep 12
First Quarter
Sep 19
Full

Hourly Weather History & Observations

Time (CDT) Temp. Heat Index Dew Point Humidity Pressure Visibility Wind Dir Wind Speed Gust Speed Precip Events Conditions
12:56 AM 77.0 °F - 73.9 °F 90% 29.83 in - SSW 5.8 mph - N/A   Unknown
1:56 AM 75.9 °F - 73.0 °F 91% 29.84 in - SW 3.5 mph - N/A   Unknown
2:56 AM 75.9 °F - 73.0 °F 91% 29.83 in - Calm Calm - N/A   Unknown
3:56 AM 73.9 °F - 72.0 °F 93% 29.83 in - Calm Calm - N/A   Unknown
4:56 AM 73.0 °F - 71.1 °F 93% 29.84 in - Calm Calm - N/A   Unknown
5:56 AM 72.0 °F - 71.1 °F 97% 29.84 in - SSW 3.5 mph - N/A   Unknown
6:56 AM 73.0 °F - 72.0 °F 96% 29.84 in - Calm Calm - N/A   Unknown
7:56 AM 73.9 °F - 72.0 °F 93% 29.86 in - Calm Calm - N/A   Unknown
8:56 AM 80.1 °F 84.2 °F 73.0 °F 79% 29.83 in - Calm Calm - N/A   Unknown
9:56 AM 82.9 °F 88.0 °F 72.0 °F 69% 29.83 in - Calm Calm - N/A   Unknown
10:56 AM 86.0 °F 93.8 °F 73.9 °F 67% 29.81 in - SE 4.6 mph - N/A   Unknown
11:56 AM 87.1 °F 93.6 °F 72.0 °F 61% 29.81 in - SSE 3.5 mph - N/A   Unknown
12:56 PM 88.0 °F 94.7 °F 72.0 °F 59% 29.79 in - SSE 5.8 mph - N/A   Unknown
1:56 PM 91.0 °F 98.2 °F 72.0 °F 53% 29.77 in - SSE 8.1 mph 16.1 mph N/A   Unknown
2:56 PM 91.9 °F 98.4 °F 71.1 °F 50% 29.75 in - Variable 6.9 mph 16.1 mph N/A   Unknown
3:56 PM 93.0 °F 101.9 °F 73.0 °F 52% 29.73 in - SE 8.1 mph - N/A   Unknown
4:56 PM 91.9 °F 101.3 °F 73.9 °F 55% 29.72 in - SE 6.9 mph - N/A   Unknown
5:56 PM 91.0 °F 97.6 °F 71.1 °F 52% 29.73 in - WSW 10.4 mph - N/A   Unknown
6:56 PM 90.0 °F 97.9 °F 73.0 °F 57% 29.72 in - WNW 9.2 mph - N/A   Unknown
7:56 PM 84.9 °F 92.1 °F 73.9 °F 69% 29.73 in - NW 4.6 mph - N/A   Unknown
8:56 PM 82.0 °F 88.6 °F 75.0 °F 79% 29.74 in - North 3.5 mph - N/A   Unknown
9:56 PM 81.0 °F 86.7 °F 75.0 °F 82% 29.75 in - WNW 3.5 mph - N/A   Unknown
10:56 PM 79.0 °F - 75.0 °F 88% 29.73 in - Calm Calm - N/A   Unknown
11:56 PM 77.0 °F - 73.9 °F 90% 29.74 in - NNW 4.6 mph - N/A   Unknown